AFR22J LFPG-KLAX

Flight info

Callsign AFR22J
Flight time N/A
Altitude 30000
Route ATREX DCT VESAN DCT RATUK/N0482F320 DCT SOVAT DCT LESTA UP6 RODOL UM65 TENSO L603 BELOX DCT GOMUP/M082F320 DCT 59N020W 60N030W 60N040W 60N050W/M082F340 DCT PIDSO/N0481F340 DCT TUNNI DCT 59N080W/N0485F360 56N090W 55N093W 52N100W DCT RUDVI DCT BIL/N0479F380 DCT JAC DCT OGD DCT MLF DCT WINEN/N0466F370 Q73 EEVUN/N0468F380 Q73 HAKMN ANJLL4
Aircraft B77W/H-SDE1E2E3FGHIJ2J3J4J5M1RWXY/LB1D1

Departure

Time 2026-05-09 10:11
Airport Charles de Gaulle International Airport (LFPG)

Arrival

Time N/A
Airport Los Angeles International Airport (KLAX)
Time Latitude Longitude Altitude Speed Heading
2026-05-09 09:40 49.00143 2.58116 359 ft 0 kts 356°
2026-05-09 09:56 49.00122 2.58118 366 ft 3 kts 356°
2026-05-09 09:56 49.00099 2.58118 365 ft 3 kts 17°
2026-05-09 09:57 49.00080 2.58098 368 ft 4 kts 68°
2026-05-09 09:57 49.00075 2.58059 366 ft 3 kts 91°
2026-05-09 09:57 49.00076 2.58018 365 ft 3 kts 94°
2026-05-09 09:57 49.00077 2.57993 362 ft 4 kts 86°
2026-05-09 09:59 49.00077 2.57992 362 ft 0 kts 86°
2026-05-09 10:01 49.00078 2.58010 365 ft 6 kts 86°
2026-05-09 10:02 49.00082 2.58096 360 ft 9 kts 86°
2026-05-09 10:02 49.00086 2.58186 365 ft 9 kts 86°
2026-05-09 10:02 49.00088 2.58277 365 ft 9 kts 100°
2026-05-09 10:02 49.00040 2.58318 363 ft 9 kts 189°
2026-05-09 10:03 49.00010 2.58239 363 ft 9 kts 260°
2026-05-09 10:03 49.00002 2.58138 366 ft 12 kts 264°
2026-05-09 10:03 48.99993 2.57977 364 ft 16 kts 266°
2026-05-09 10:03 48.99985 2.57813 365 ft 16 kts 266°
2026-05-09 10:04 48.99977 2.57649 364 ft 16 kts 265°
2026-05-09 10:04 48.99968 2.57484 359 ft 16 kts 265°
2026-05-09 10:04 48.99958 2.57305 363 ft 19 kts 265°
2026-05-09 10:04 48.99947 2.57108 365 ft 19 kts 265°
2026-05-09 10:05 48.99937 2.56910 359 ft 20 kts 265°
2026-05-09 10:05 48.99924 2.56660 362 ft 26 kts 265°
2026-05-09 10:05 48.99908 2.56386 361 ft 26 kts 265°
2026-05-09 10:05 48.99895 2.56143 359 ft 20 kts 265°
2026-05-09 10:06 48.99892 2.55940 361 ft 17 kts 281°
2026-05-09 10:06 48.99893 2.55815 365 ft 8 kts 220°
2026-05-09 10:06 48.99859 2.55800 364 ft 5 kts 185°
2026-05-09 10:06 48.99826 2.55800 365 ft 5 kts 180°
2026-05-09 10:07 48.99793 2.55801 366 ft 5 kts 178°
2026-05-09 10:07 48.99760 2.55803 364 ft 5 kts 177°
2026-05-09 10:07 48.99755 2.55803 364 ft 0 kts 176°
2026-05-09 10:08 48.99744 2.55804 364 ft 5 kts 176°
2026-05-09 10:08 48.99700 2.55811 362 ft 7 kts 173°
2026-05-09 10:08 48.99653 2.55820 365 ft 7 kts 173°
2026-05-09 10:08 48.99605 2.55834 364 ft 7 kts 153°
2026-05-09 10:09 48.99600 2.55889 358 ft 1 kts 81°
2026-05-09 10:09 48.99600 2.55890 358 ft 0 kts 81°
2026-05-09 10:10 48.99606 2.55953 358 ft 18 kts 83°
2026-05-09 10:10 48.99633 2.56433 363 ft 77 kts 86°
2026-05-09 10:11 48.99691 2.57552 360 ft 134 kts 85°
2026-05-09 10:11 48.99772 2.59183 411 ft 169 kts 86°
2026-05-09 10:11 48.99864 2.60977 797 ft 175 kts 86°
2026-05-09 10:11 48.99963 2.62845 1298 ft 178 kts 85°
2026-05-09 10:12 49.00068 2.64721 1794 ft 177 kts 85°
2026-05-09 10:12 49.00175 2.66591 2355 ft 178 kts 86°
2026-05-09 10:12 49.00283 2.68477 2783 ft 180 kts 88°
2026-05-09 10:12 49.00386 2.70420 3098 ft 186 kts 88°
2026-05-09 10:13 49.00480 2.72388 3452 ft 185 kts 87°
2026-05-09 10:13 49.00586 2.74353 3811 ft 189 kts 87°
2026-05-09 10:13 49.00683 2.76412 3980 ft 203 kts 88°
2026-05-09 10:13 49.00770 2.78664 4076 ft 223 kts 88°
2026-05-09 10:14 49.00885 2.81094 4309 ft 239 kts 86°
2026-05-09 10:14 49.01077 2.83691 4545 ft 252 kts 76°
2026-05-09 10:14 49.02003 2.86045 4783 ft 272 kts 41°
2026-05-09 10:14 49.03664 2.87396 5374 ft 275 kts 14°
2026-05-09 10:15 49.05576 2.87433 5854 ft 282 kts 344°
2026-05-09 10:15 49.07424 2.86425 6368 ft 285 kts 335°
2026-05-09 10:15 49.09253 2.85163 6889 ft 290 kts 333°
2026-05-09 10:15 49.11053 2.83875 7583 ft 289 kts 333°
2026-05-09 10:16 49.12868 2.82561 8302 ft 287 kts 333°
2026-05-09 10:16 49.14668 2.81264 9006 ft 285 kts 333°
2026-05-09 10:16 49.16479 2.79997 9629 ft 287 kts 333°
2026-05-09 10:16 49.18300 2.78749 10152 ft 289 kts 333°
2026-05-09 10:17 49.20188 2.77454 10323 ft 307 kts 333°
2026-05-09 10:17 49.22194 2.76080 10471 ft 325 kts 334°
2026-05-09 10:17 49.24322 2.74624 10624 ft 344 kts 334°
2026-05-09 10:17 49.26566 2.73086 10780 ft 363 kts 334°
2026-05-09 10:18 49.28906 2.71479 11187 ft 373 kts 333°
2026-05-09 10:18 49.31302 2.69829 11693 ft 381 kts 334°
2026-05-09 10:18 49.33731 2.68154 12295 ft 385 kts 334°
2026-05-09 10:18 49.36188 2.66456 12935 ft 389 kts 334°
2026-05-09 10:19 49.38670 2.64739 13539 ft 393 kts 334°
2026-05-09 10:19 49.41168 2.63007 14114 ft 398 kts 334°
2026-05-09 10:19 49.43703 2.61248 14706 ft 401 kts 334°
2026-05-09 10:19 49.46252 2.59479 15295 ft 404 kts 334°
2026-05-09 10:20 49.48822 2.57694 15887 ft 407 kts 334°
2026-05-09 10:20 49.51412 2.55892 16476 ft 410 kts 334°
2026-05-09 10:20 49.54026 2.54071 17070 ft 414 kts 334°
2026-05-09 10:20 49.56659 2.52231 17624 ft 418 kts 334°
2026-05-09 10:21 49.59318 2.50371 18180 ft 422 kts 334°
2026-05-09 10:21 49.62007 2.48489 18695 ft 426 kts 334°
2026-05-09 10:21 49.64717 2.46591 19171 ft 430 kts 334°
2026-05-09 10:21 49.67452 2.44674 19654 ft 434 kts 334°
2026-05-09 10:22 49.70215 2.42734 20142 ft 438 kts 334°
2026-05-09 10:22 49.73001 2.40775 20621 ft 442 kts 334°
2026-05-09 10:22 49.75813 2.38795 21074 ft 446 kts 334°
2026-05-09 10:22 49.78653 2.36799 21550 ft 450 kts 335°
2026-05-09 10:23 49.81524 2.34960 22016 ft 454 kts 338°
2026-05-09 10:23 49.84499 2.33237 22496 ft 458 kts 339°
2026-05-09 10:23 49.87554 2.31532 22980 ft 462 kts 340°
2026-05-09 10:23 49.90551 2.29860 23426 ft 466 kts 339°
2026-05-09 10:24 49.93605 2.28136 23834 ft 470 kts 339°
2026-05-09 10:24 49.96684 2.26372 24236 ft 473 kts 339°
2026-05-09 10:24 49.99780 2.24580 24560 ft 478 kts 339°
2026-05-09 10:24 50.02911 2.22756 24933 ft 481 kts 339°
2026-05-09 10:25 50.06056 2.20918 25318 ft 484 kts 339°
2026-05-09 10:25 50.09217 2.19069 25699 ft 487 kts 339°
2026-05-09 10:25 50.12401 2.17204 26064 ft 490 kts 339°
2026-05-09 10:25 50.15605 2.15326 26428 ft 494 kts 339°
2026-05-09 10:26 50.18827 2.13436 26784 ft 497 kts 339°
2026-05-09 10:26 50.22069 2.11530 27175 ft 499 kts 339°
2026-05-09 10:26 50.25329 2.09611 27549 ft 501 kts 339°
2026-05-09 10:26 50.28599 2.07684 27886 ft 505 kts 339°
2026-05-09 10:27 50.31895 2.05734 28223 ft 508 kts 338°
2026-05-09 10:27 50.35119 2.03469 28515 ft 510 kts 331°
2026-05-09 10:27 50.38190 2.00673 28823 ft 512 kts 326°
2026-05-09 10:27 50.41105 1.97463 29151 ft 512 kts 319°
2026-05-09 10:28 50.43803 1.93844 29658 ft 509 kts 316°
2026-05-09 10:28 50.46445 1.90164 30161 ft 507 kts 316°
2026-05-09 10:28 50.49081 1.86484 30553 ft 507 kts 316°
2026-05-09 10:28 50.51725 1.82815 30866 ft 509 kts 316°
2026-05-09 10:29 50.54396 1.79134 31058 ft 512 kts 317°
2026-05-09 10:29 50.57085 1.75444 31371 ft 512 kts 317°
2026-05-09 10:29 50.59752 1.71789 31796 ft 509 kts 317°
2026-05-09 10:29 50.62427 1.68116 32126 ft 510 kts 317°
2026-05-09 10:30 50.65106 1.64426 32046 ft 512 kts 316°
2026-05-09 10:30 50.70417 1.57087 32070 ft 504 kts 316°
2026-05-09 10:31 50.75685 1.49781 32080 ft 504 kts 316°
2026-05-09 10:31 50.81069 1.42669 32090 ft 505 kts 320°
2026-05-09 10:32 50.86641 1.35872 32114 ft 507 kts 321°
2026-05-09 10:32 50.92115 1.29229 32128 ft 509 kts 320°
2026-05-09 10:33 50.96773 1.23518 32133 ft 510 kts 320°
2026-05-09 10:33 51.02370 1.16600 32128 ft 510 kts 320°
2026-05-09 10:34 51.07966 1.09649 32130 ft 510 kts 320°
2026-05-09 10:34 51.16332 0.99220 32125 ft 509 kts 320°
2026-05-09 10:35 51.21902 0.92252 32171 ft 509 kts 320°
2026-05-09 10:35 51.27479 0.85252 32181 ft 510 kts 320°
2026-05-09 10:36 51.33066 0.78217 32131 ft 512 kts 320°
2026-05-09 10:36 51.38656 0.71156 32130 ft 513 kts 319°
2026-05-09 10:37 51.44174 0.64165 32131 ft 514 kts 319°
2026-05-09 10:37 51.49745 0.57083 32132 ft 515 kts 319°
2026-05-09 10:38 51.55392 0.49883 32132 ft 515 kts 319°
2026-05-09 10:38 51.60960 0.42759 32136 ft 515 kts 319°
2026-05-09 10:39 51.66567 0.35563 32137 ft 515 kts 319°
2026-05-09 10:39 51.72207 0.28299 32147 ft 515 kts 319°
2026-05-09 10:40 51.77759 0.21126 32155 ft 515 kts 319°
2026-05-09 10:40 51.83343 0.13889 32166 ft 514 kts 318°
2026-05-09 10:41 51.88909 0.06652 32154 ft 513 kts 318°
2026-05-09 10:41 51.94455 -0.00585 32131 ft 511 kts 318°
2026-05-09 10:42 51.99994 -0.07836 32132 ft 512 kts 318°
2026-05-09 10:42 52.05533 -0.15111 32135 ft 513 kts 317°
2026-05-09 10:43 52.11075 -0.22413 32147 ft 513 kts 317°
2026-05-09 10:43 52.16619 -0.29742 32142 ft 513 kts 317°
2026-05-09 10:44 52.22156 -0.37085 32144 ft 513 kts 317°
2026-05-09 10:44 52.27693 -0.44455 32139 ft 513 kts 317°
2026-05-09 10:46 52.41470 -0.62895 32144 ft 511 kts 317°
2026-05-09 10:46 52.46957 -0.70282 32143 ft 510 kts 317°
2026-05-09 10:47 52.52426 -0.77670 32149 ft 509 kts 317°
2026-05-09 10:47 52.57886 -0.85072 32149 ft 509 kts 317°
2026-05-09 10:48 52.63341 -0.92491 32138 ft 508 kts 316°
2026-05-09 10:48 52.68784 -0.99919 32115 ft 508 kts 316°
2026-05-09 10:49 52.74215 -1.07376 32161 ft 508 kts 315°
2026-05-09 10:49 52.79389 -1.15304 32169 ft 506 kts 311°
2026-05-09 10:50 52.84460 -1.23372 32167 ft 506 kts 311°
2026-05-09 10:50 52.89539 -1.31424 32160 ft 505 kts 312°
2026-05-09 10:51 52.94628 -1.39465 32161 ft 505 kts 312°
2026-05-09 10:51 52.99714 -1.47521 32145 ft 505 kts 312°
2026-05-09 10:52 53.04778 -1.55575 32170 ft 504 kts 311°
2026-05-09 10:52 53.09837 -1.63655 32159 ft 504 kts 311°
2026-05-09 10:53 53.14759 -1.71580 32162 ft 504 kts 311°
2026-05-09 10:53 53.19790 -1.79703 32155 ft 503 kts 311°
2026-05-09 10:54 53.25118 -1.87327 32176 ft 508 kts 320°
2026-05-09 10:54 53.31184 -1.93393 32174 ft 513 kts 327°
2026-05-09 10:55 53.37432 -1.99155 32182 ft 512 kts 327°
2026-05-09 10:55 53.43634 -2.05006 32181 ft 511 kts 326°
2026-05-09 10:56 53.49807 -2.10916 32180 ft 511 kts 326°
2026-05-09 10:56 53.55952 -2.16889 32173 ft 507 kts 321°
2026-05-09 10:56 53.58645 -2.20637 32164 ft 498 kts 308°
2026-05-09 10:57 53.60785 -2.25134 32184 ft 489 kts 297°
2026-05-09 10:57 53.62406 -2.30106 32172 ft 480 kts 285°
2026-05-09 10:57 53.63566 -2.35353 32199 ft 477 kts 284°
2026-05-09 10:58 53.65874 -2.45901 32182 ft 482 kts 284°
2026-05-09 10:58 53.68255 -2.56501 32181 ft 485 kts 285°
2026-05-09 10:59 53.70664 -2.67132 32182 ft 486 kts 285°
2026-05-09 10:59 53.73064 -2.77746 32156 ft 479 kts 284°
2026-05-09 11:00 53.75405 -2.88175 32169 ft 474 kts 284°
2026-05-09 11:00 53.77727 -2.98606 32189 ft 475 kts 284°
2026-05-09 11:01 53.80048 -3.09076 32192 ft 476 kts 284°
2026-05-09 11:01 53.82371 -3.19600 32194 ft 478 kts 284°
2026-05-09 11:02 53.84689 -3.30144 32186 ft 478 kts 284°
2026-05-09 11:02 53.86998 -3.40695 32187 ft 478 kts 285°
2026-05-09 11:03 53.90090 -3.50776 32189 ft 488 kts 298°
2026-05-09 11:03 53.94435 -3.59720 32222 ft 494 kts 307°
2026-05-09 11:04 53.99140 -3.68240 32195 ft 494 kts 307°
2026-05-09 11:04 54.03822 -3.76765 32184 ft 492 kts 307°
2026-05-09 11:05 54.08448 -3.85313 32191 ft 490 kts 307°
2026-05-09 11:05 54.13039 -3.93875 32188 ft 489 kts 307°
2026-05-09 11:06 54.17612 -4.02443 32189 ft 488 kts 307°
2026-05-09 11:06 54.22142 -4.10957 32207 ft 487 kts 306°
2026-05-09 11:07 54.26691 -4.19532 32203 ft 486 kts 306°
2026-05-09 11:07 54.31222 -4.28102 32218 ft 485 kts 307°
2026-05-09 11:08 54.35732 -4.36663 32212 ft 483 kts 307°
2026-05-09 11:08 54.40226 -4.45223 32210 ft 482 kts 306°
2026-05-09 11:09 54.44699 -4.53774 32224 ft 480 kts 306°
2026-05-09 11:09 54.49148 -4.62308 32217 ft 478 kts 306°
2026-05-09 11:10 54.53576 -4.70835 32220 ft 477 kts 306°
2026-05-09 11:10 54.57985 -4.79354 32232 ft 476 kts 306°
2026-05-09 11:11 54.62388 -4.87894 32241 ft 476 kts 306°
2026-05-09 11:11 54.66773 -4.96425 32267 ft 475 kts 306°
2026-05-09 11:12 54.71148 -5.04967 32241 ft 473 kts 306°
2026-05-09 11:12 54.75490 -5.13472 32238 ft 471 kts 305°
2026-05-09 11:13 54.79810 -5.21967 32254 ft 469 kts 305°
2026-05-09 11:13 54.84111 -5.30455 32264 ft 468 kts 305°
2026-05-09 11:14 54.88404 -5.38961 32265 ft 469 kts 305°
2026-05-09 11:14 54.92701 -5.47501 32294 ft 469 kts 305°
2026-05-09 11:15 54.96986 -5.56045 32264 ft 468 kts 305°
2026-05-09 11:15 55.01248 -5.64570 32264 ft 465 kts 305°
2026-05-09 11:16 55.05481 -5.73071 32289 ft 464 kts 304°
2026-05-09 11:16 55.09698 -5.81571 32292 ft 463 kts 304°
2026-05-09 11:17 55.13908 -5.90089 32316 ft 463 kts 304°
2026-05-09 11:17 55.17394 -5.97161 32302 ft 462 kts 304°
2026-05-09 11:18 55.21577 -6.05674 32292 ft 460 kts 304°
2026-05-09 11:18 55.25738 -6.14174 32294 ft 459 kts 304°
2026-05-09 11:19 55.29886 -6.22678 32309 ft 458 kts 304°
2026-05-09 11:19 55.34023 -6.31190 32304 ft 458 kts 304°
2026-05-09 11:20 55.38158 -6.39727 32320 ft 459 kts 304°
2026-05-09 11:20 55.42285 -6.48277 32322 ft 459 kts 304°
2026-05-09 11:21 55.46408 -6.56847 32321 ft 458 kts 303°
2026-05-09 11:21 55.50517 -6.65421 32322 ft 458 kts 303°
2026-05-09 11:22 55.54620 -6.74005 32346 ft 457 kts 304°
2026-05-09 11:22 55.58706 -6.82592 32343 ft 456 kts 304°
2026-05-09 11:23 55.62755 -6.91139 32337 ft 456 kts 306°
2026-05-09 11:23 55.66850 -6.99819 32339 ft 456 kts 306°
2026-05-09 11:24 55.70912 -7.08440 32345 ft 455 kts 306°
2026-05-09 11:24 55.74938 -7.17013 32345 ft 455 kts 306°
2026-05-09 11:25 55.79010 -7.25722 32352 ft 455 kts 306°
2026-05-09 11:25 55.83024 -7.34341 32351 ft 455 kts 306°
2026-05-09 11:26 55.87057 -7.43031 32355 ft 456 kts 307°
2026-05-09 11:26 55.91089 -7.51749 32366 ft 456 kts 307°
2026-05-09 11:27 55.95027 -7.60292 32362 ft 456 kts 306°
2026-05-09 11:27 55.99048 -7.69050 32364 ft 456 kts 306°
2026-05-09 11:28 56.03065 -7.77828 32366 ft 456 kts 306°
2026-05-09 11:28 56.07075 -7.86625 32391 ft 456 kts 307°
2026-05-09 11:29 56.11081 -7.95443 32374 ft 455 kts 307°
2026-05-09 11:29 56.15065 -8.04249 32365 ft 454 kts 308°
2026-05-09 11:30 56.19033 -8.13049 32376 ft 453 kts 308°
2026-05-09 11:30 56.22985 -8.21847 32380 ft 452 kts 308°
2026-05-09 11:31 56.26927 -8.30652 32385 ft 452 kts 308°
2026-05-09 11:31 56.30864 -8.39478 32403 ft 452 kts 308°
2026-05-09 11:32 56.34787 -8.48307 32388 ft 451 kts 308°
2026-05-09 11:32 56.38704 -8.57152 32390 ft 451 kts 308°
2026-05-09 11:33 56.42608 -8.66002 32392 ft 450 kts 308°
2026-05-09 11:33 56.48438 -8.79279 32395 ft 449 kts 308°
2026-05-09 11:34 56.52310 -8.88136 32394 ft 449 kts 308°
2026-05-09 11:34 56.56175 -8.97012 32401 ft 448 kts 309°
2026-05-09 11:35 56.60031 -9.05898 32398 ft 448 kts 309°
2026-05-09 11:35 56.63874 -9.14786 32397 ft 447 kts 309°